DW2891 Weather Reports


Display with metric or nautical units.
time (UTC)temp
F
wind
direction
speed
MPH
gust
MPH
rain 1hr
in
rain 24hr
in
rain mn
in
humidity
%
barometer
mb
20260905081604 56 266 0.0 0.0 0.00 0.00 0.00 90 1016.4
20260905081104 56 266 0.0 0.0 0.00 0.00 0.00 90 1016.4
20260905080605 56 266 0.0 0.0 0.00 0.00 0.00 89 1016.4
20260905080105 56 266 0.0 0.0 0.00 0.00 0.00 89 1016.4
20260905075605 56 266 0.0 0.0 0.00 0.00 0.00 89 1016.1
20260905075104 56 266 0.0 0.0 0.00 0.00 0.00 89 1016.1
20260905074605 56 266 0.0 0.0 0.00 0.00 0.00 89 1016.1
20260905074105 56 266 0.0 0.0 0.00 0.00 0.00 89 1016.3
20260905073604 56 266 0.0 0.0 0.00 0.00 0.00 89 1016.2
20260905073104 56 266 0.0 0.0 0.00 0.00 0.00 89 1016.0
20260905072605 56 266 0.0 0.0 0.00 0.00 0.00 89 1016.0
20260905072105 56 266 0.0 0.0 0.00 0.00 0.00 89 1016.0
20260905071605 56 266 0.0 0.0 0.00 0.00 0.00 89 1016.0
20260905071104 56 266 0.0 0.0 0.00 0.00 0.00 88 1016.0
20260905065105 56 266 0.0 0.0 0.00 0.00 0.00 88 1016.1
20260905064605 56 266 0.0 0.0 0.00 0.00 0.00 88 1016.1
20260905064104 56 266 0.0 0.0 0.00 0.00 0.00 87 1016.1
20260905063605 56 266 0.0 0.0 0.00 0.00 0.00 88 1016.1
20260905062604 56 266 0.0 0.0 0.00 0.00 0.00 88 1016.0
20260905061605 56 266 0.0 0.0 0.00 0.00 0.00 87 1016.0
20260905060605 56 266 0.0 0.0 0.00 0.00 0.00 87 1016.0
20260905060104 56 266 0.0 0.0 0.00 0.00 0.00 87 1016.0
20260905055604 56 266 0.0 0.0 0.00 0.00 0.00 86 1016.0
20260905054605 56 266 0.0 0.0 0.00 0.00 0.00 86 1016.0
20260905054104 56 266 0.0 0.0 0.00 0.00 0.00 86 1016.1
20260905053605 56 266 0.0 0.0 0.00 0.00 0.00 86 1016.1
20260905053105 56 266 0.0 0.0 0.00 0.00 0.00 85 1016.1
20260905052605 56 266 0.0 0.0 0.00 0.00 0.00 85 1016.0
20260905052104 56 266 0.0 0.0 0.00 0.00 0.00 85 1015.9
20260905051605 56 266 0.0 0.0 0.00 0.00 0.00 84 1016.0
20260905051105 57 266 0.0 0.0 0.00 0.00 0.00 84 1016.0
20260905050604 57 266 0.0 0.0 0.00 0.00 0.00 84 1016.0
20260905050104 57 266 0.0 0.0 0.00 0.00 0.00 83 1015.9
20260905045604 57 266 0.0 0.0 0.00 0.00 0.00 83 1015.9
20260905045105 57 266 0.0 0.0 0.00 0.00 0.00 83 1015.9
20260905044604 57 266 0.0 0.0 0.00 0.00 0.00 83 1016.0
20260905044104 57 266 0.0 0.0 0.00 0.00 0.00 83 1016.0
20260905043605 57 266 0.0 0.0 0.00 0.00 0.00 83 1016.0
20260905043104 58 266 0.0 0.0 0.00 0.00 0.00 83 1015.9
20260905042604 58 266 0.0 0.0 0.00 0.00 0.00 83 1016.0
20260905042105 58 266 0.0 0.0 0.00 0.00 0.00 84 1015.9
20260905041104 58 266 0.0 0.0 0.00 0.00 0.00 83 1015.9
20260905040605 58 266 0.0 0.0 0.00 0.00 0.00 82 1015.9
20260905040105 58 266 0.0 0.0 0.00 0.00 0.00 82 1015.8
20260905035604 58 266 0.0 0.0 0.00 0.00 0.00 84 1015.8
20260905035104 58 266 0.0 0.0 0.00 0.00 0.00 83 1015.9
20260905034105 59 266 0.0 0.0 0.00 0.00 0.00 83 1015.8
20260905033105 59 266 0.0 0.0 0.00 0.00 0.00 82 1015.7
20260905032605 59 266 0.0 0.0 0.00 0.00 0.00 82 1015.6
20260905031604 60 266 0.0 0.0 0.00 0.00 0.00 83 1015.5
20260905030604 60 266 0.0 0.0 0.00 0.00 0.00 82 1015.3
20260905030105 60 266 0.0 0.0 0.00 0.00 0.00 83 1015.2
20260905025605 60 266 0.0 0.0 0.00 0.00 0.00 83 1015.3
20260905025104 61 266 0.0 0.0 0.00 0.00 0.00 83 1015.2
20260905024604 61 266 0.0 0.0 0.00 0.00 0.00 83 1015.1
20260905024104 61 266 0.0 0.0 0.00 0.00 0.00 82 1015.0
20260905023604 61 266 0.0 0.0 0.00 0.00 0.00 82 1015.0
20260905023104 61 266 0.0 0.0 0.00 0.00 0.00 82 1015.1
20260905022604 61 266 0.0 0.0 0.00 0.00 0.00 82 1015.1
20260905021605 61 266 0.0 0.0 0.00 0.00 0.00 82 1015.1
20260905021104 61 266 0.0 0.0 0.00 0.00 0.00 81 1015.0
20260905020605 61 266 0.0 0.0 0.00 0.00 0.00 81 1015.0
20260905020104 61 266 0.0 0.0 0.00 0.00 0.00 80 1015.0
20260905015604 61 266 0.0 0.0 0.00 0.00 0.00 79 1014.9
20260905015105 61 266 0.0 0.0 0.00 0.00 0.00 79 1014.9
20260905014604 61 266 0.0 0.0 0.00 0.00 0.00 80 1014.9
20260905013605 62 266 0.0 0.0 0.00 0.00 0.00 76 1014.8
20260905013104 62 266 0.0 0.0 0.00 0.00 0.00 78 1014.9
20260905012604 62 266 0.0 0.0 0.00 0.00 0.00 77 1014.9
20260905012105 62 266 0.0 0.0 0.00 0.00 0.00 75 1014.9
20260905011605 62 266 0.0 0.0 0.00 0.00 0.00 77 1014.9
20260905011104 62 266 0.0 0.0 0.00 0.00 0.00 76 1014.9
20260905010604 62 266 0.0 0.0 0.00 0.00 0.00 75 1014.8
20260905010104 63 266 0.0 0.0 0.00 0.00 0.00 77 1014.8
20260905005604 63 266 0.0 0.0 0.00 0.00 0.00 76 1014.8
20260905004104 63 266 0.0 0.0 0.00 0.00 0.00 74 1014.7
20260905003604 63 266 0.0 0.0 0.00 0.00 0.00 75 1014.7
20260905001605 63 266 0.0 0.0 0.00 0.00 0.00 76 1014.5
20260905001105 63 266 0.0 0.0 0.00 0.00 0.00 74 1014.5
20260905000605 63 266 0.0 0.0 0.00 0.00 0.00 74 1014.5
20260905000105 63 266 0.0 0.0 0.00 0.00 0.00 74 1014.5
20260904235604 63 266 0.0 0.0 0.00 0.00 0.00 73 1014.5
20260904235105 63 266 0.0 0.0 0.00 0.00 0.00 74 1014.4
20260904234605 63 266 0.0 0.0 0.00 0.00 0.00 73 1014.4
20260904234105 63 266 0.0 0.0 0.00 0.00 0.00 75 1014.4
20260904233604 63 266 0.0 0.0 0.00 0.00 0.00 72 1014.5
20260904232605 63 266 0.0 0.0 0.00 0.00 0.00 75 1014.5
20260904232105 63 266 0.0 0.0 0.00 0.00 0.00 73 1014.5
20260904230604 63 54 0.0 0.0 0.00 0.00 0.00 71 1014.5
20260904230104 63 54 0.0 0.0 0.00 0.00 0.00 74 1014.5
20260904225604 64 54 0.0 0.0 0.00 0.00 0.00 72 1014.5
20260904225104 63 54 0.0 0.0 0.00 0.00 0.00 72 1014.4
20260904224604 63 54 0.0 5.0 0.00 0.00 0.00 71 1014.5
20260904223604 63 265 0.0 0.0 0.00 0.00 0.00 74 1014.5
20260904223104 63 265 0.0 2.0 0.00 0.00 0.00 74 1014.4
20260904222604 63 263 0.0 0.0 0.00 0.00 0.00 75 1014.4
20260904222104 63 263 0.0 0.0 0.00 0.00 0.00 76 1014.4
20260904221604 63 297 0.0 0.0 0.00 0.00 0.00 76 1014.4
20260904221104 63 279 1.0 5.0 0.00 0.00 0.00 76 1014.5
20260904220604 63 335 0.0 2.0 0.00 0.00 0.00 77 1014.4
20260904220104 63 286 0.0 0.0 0.00 0.00 0.00 76 1014.4
20260904215604 63 278 0.0 0.0 0.00 0.00 0.00 77 1014.4
20260904215105 63 179 0.0 5.0 0.00 0.00 0.00 75 1014.3
20260904214604 63 338 0.0 0.0 0.00 0.00 0.00 73 1014.4
20260904214104 64 338 0.0 0.0 0.00 0.00 0.00 74 1014.3
20260904213104 64 93 0.0 1.0 0.00 0.00 0.00 74 1014.2
20260904212604 64 93 0.0 0.0 0.00 0.00 0.00 74 1014.2
20260904212104 63 80 0.0 1.0 0.00 0.00 0.00 74 1014.1
20260904211605 64 78 0.0 2.0 0.00 0.00 0.00 72 1014.1
20260904211104 65 260 1.0 6.0 0.00 0.00 0.00 72 1014.1
20260904210604 64 27 0.0 1.0 0.00 0.00 0.00 72 1014.1
20260904210104 64 313 1.0 9.0 0.00 0.00 0.00 72 1014.0
20260904205104 64 319 0.0 1.0 0.00 0.00 0.00 71 1014.0
20260904204604 64 314 1.0 5.0 0.00 0.00 0.00 71 1013.9
20260904204104 64 87 0.0 1.0 0.00 0.00 0.00 71 1014.0
20260904203604 64 90 0.0 0.0 0.00 0.00 0.00 73 1014.0
20260904203105 64 101 0.0 0.0 0.00 0.00 0.00 72 1014.1
20260904202604 64 84 0.0 0.0 0.00 0.00 0.00 73 1014.1
20260904202104 63 84 0.0 3.0 0.00 0.00 0.00 73 1014.0
20260904201604 63 107 0.0 1.0 0.00 0.00 0.00 74 1014.0
20260904201104 63 107 0.0 6.0 0.00 0.00 0.00 75 1014.0
20260904200604 64 61 2.0 5.0 0.00 0.00 0.00 72 1014.0
20260904200104 65 58 0.0 1.0 0.00 0.00 0.00 72 1014.0
20260904194604 63 338 0.0 0.0 0.00 0.00 0.00 73 1014.1
20260904194104 63 274 0.0 6.0 0.00 0.00 0.00 72 1014.1
20260904193104 64 24 0.0 0.0 0.00 0.00 0.00 76 1014.1
20260904192604 64 60 0.0 1.0 0.00 0.00 0.00 75 1014.1
20260904191604 63 63 1.0 5.0 0.00 0.00 0.00 73 1014.0
20260904191104 63 298 0.0 6.0 0.00 0.00 0.00 75 1014.0
20260904190104 62 86 0.0 1.0 0.00 0.00 0.00 75 1014.0
20260904185604 62 297 0.0 0.0 0.00 0.00 0.00 78 1013.9
20260904185104 62 297 0.0 5.0 0.00 0.00 0.00 79 1014.0
20260904184104 62 87 0.0 0.0 0.00 0.00 0.00 78 1014.1
20260904183604 63 87 0.0 0.0 0.00 0.00 0.00 77 1014.0
20260904183104 64 87 0.0 2.0 0.00 0.00 0.00 74 1014.0
20260904182604 65 43 0.0 1.0 0.00 0.00 0.00 75 1013.9
20260904182104 65 17 0.0 0.0 0.00 0.00 0.00 76 1013.8
20260904181604 65 315 0.0 1.0 0.00 0.00 0.00 73 1013.6
20260904181104 64 23 0.0 2.0 0.00 0.00 0.00 73 1013.4
20260904180604 63 270 0.0 2.0 0.00 0.00 0.00 72 1013.3
20260904180104 63 244 0.0 0.0 0.00 0.00 0.00 73 1013.4
20260904175604 63 333 0.0 1.0 0.00 0.00 0.00 79 1013.3
20260904175105 62 333 0.0 0.0 0.00 0.00 0.00 79 1013.3
20260904174606 61 333 0.0 0.0 0.00 0.00 0.00 82 1013.3
20260904174104 61 332 0.0 0.0 0.00 0.00 0.00 81 1013.3
20260904173604 60 332 0.0 0.0 0.00 0.00 0.00 84 1013.3
20260904173104 60 332 0.0 0.0 0.00 0.00 0.00 83 1013.5
20260904172604 60 332 0.0 0.0 0.00 0.00 0.00 82 1013.5
20260904172104 60 332 0.0 0.0 0.00 0.00 0.00 79 1013.5
20260904171605 60 333 0.0 0.0 0.00 0.00 0.00 80 1013.6
20260904171104 60 333 0.0 0.0 0.00 0.00 0.00 80 1013.6
20260904170604 60 333 0.0 0.0 0.00 0.00 0.00 80 1013.5
20260904170105 60 333 0.0 2.0 0.00 0.00 0.00 80 1013.5
20260904165605 60 15 0.0 0.0 0.00 0.00 0.00 80 1013.5
20260904165104 60 304 0.0 2.0 0.00 0.00 0.00 80 1013.4
20260904164604 60 270 0.0 0.0 0.00 0.00 0.00 81 1013.4
20260904164104 59 246 1.0 6.0 0.00 0.00 0.00 83 1013.4
20260904163604 59 317 0.0 0.0 0.00 0.00 0.00 84 1013.4
20260904163104 59 317 0.0 8.0 0.00 0.00 0.00 83 1013.4
20260904162604 59 313 0.0 8.0 0.00 0.00 0.00 83 1013.3
20260904162104 58 329 3.0 13.0 0.00 0.00 0.00 83 1013.3
20260904161604 58 326 1.0 8.0 0.00 0.00 0.00 85 1013.2
20260904161104 58 10 0.0 0.0 0.00 0.00 0.00 86 1013.3
20260904160104 57 315 0.0 5.0 0.00 0.01 0.00 89 1013.1
20260904155604 57 312 0.0 8.0 0.00 0.01 0.00 89 1013.2
20260904155104 57 342 0.0 0.0 0.00 0.01 0.00 91 1013.1
20260904154104 56 19 0.0 0.0 0.00 0.01 0.00 92 1013.0
20260904153604 55 347 0.0 1.0 0.00 0.01 0.00 92 1012.9
20260904153104 55 347 0.0 0.0 0.00 0.01 0.00 92 1012.9
20260904152604 55 347 0.0 0.0 0.00 0.01 0.00 92 1012.9
20260904151604 54 347 0.0 0.0 0.00 0.01 0.00 92 1012.9
20260904151104 54 347 0.0 0.0 0.00 0.01 0.00 92 1012.7
20260904150605 54 347 0.0 0.0 0.00 0.02 0.00 92 1012.8
20260904150103 54 347 0.0 0.0 0.00 0.02 0.00 91 1012.8
20260904145604 54 347 0.0 0.0 0.00 0.02 0.00 92 1012.6
20260904145104 54 347 0.0 0.0 0.00 0.02 0.00 91 1012.5
20260904144604 54 347 0.0 0.0 0.00 0.02 0.00 91 1012.4
20260904144104 55 347 0.0 0.0 0.00 0.02 0.00 91 1012.5
20260904143605 55 347 0.0 0.0 0.00 0.02 0.00 91 1012.5
20260904143104 55 347 0.0 0.0 0.00 0.02 0.00 91 1012.4
20260904142604 55 347 0.0 0.0 0.00 0.02 0.00 91 1012.3
20260904142104 55 347 0.0 0.0 0.00 0.02 0.00 91 1012.3
20260904141104 55 347 0.0 0.0 0.00 0.02 0.00 91 1012.3
20260904140604 55 347 0.0 0.0 0.00 0.02 0.00 91 1012.3
20260904140104 55 347 0.0 2.0 0.00 0.02 0.00 91 1012.2
20260904135604 55 348 0.0 2.0 0.00 0.03 0.00 92 1012.1
20260904135104 54 9 0.0 0.0 0.00 0.03 0.00 92 1012.1
20260904134104 54 9 0.0 0.0 0.00 0.03 0.00 91 1012.1
20260904133604 54 9 0.0 0.0 0.00 0.03 0.00 91 1012.0
20260904133104 54 9 0.0 0.0 0.00 0.03 0.00 91 1011.9
20260904132604 54 9 0.0 0.0 0.00 0.03 0.00 91 1011.8
20260904132103 54 9 0.0 0.0 0.00 0.03 0.00 91 1011.7
20260904131604 54 9 0.0 0.0 0.00 0.03 0.00 91 1011.6
20260904131104 54 9 0.0 0.0 0.00 0.03 0.00 91 1011.5
20260904130604 54 9 0.0 0.0 0.00 0.03 0.00 91 1011.4
20260904130104 54 9 0.0 0.0 0.00 0.03 0.00 91 1011.5
20260904125604 54 9 0.0 0.0 0.00 0.03 0.00 91 1011.4
20260904125104 55 9 0.0 0.0 0.00 0.03 0.00 91 1011.4
20260904124603 55 9 0.0 0.0 0.00 0.03 0.00 91 1011.4
20260904124103 55 9 0.0 9.0 0.00 0.03 0.00 91 1011.4
20260904123604 55 12 0.0 0.0 0.00 0.03 0.00 91 1011.4
20260904123104 55 11 0.0 0.0 0.00 0.03 0.00 91 1011.2
20260904122104 54 11 0.0 0.0 0.00 0.03 0.00 92 1011.1
20260904121104 54 11 0.0 0.0 0.00 0.03 0.00 92 1011.1
20260904120604 54 11 0.0 0.0 0.00 0.03 0.00 92 1011.1
20260904120104 54 11 0.0 1.0 0.00 0.03 0.00 92 1011.1
20260904115603 54 11 1.0 5.0 0.00 0.03 0.00 92 1011.2
20260904115104 54 250 0.0 0.0 0.00 0.03 0.00 93 1011.1
20260904114604 54 250 0.0 0.0 0.00 0.03 0.00 93 1011.2
20260904114103 54 250 0.0 0.0 0.00 0.03 0.00 93 1011.1
20260904113604 54 250 0.0 0.0 0.00 0.03 0.00 93 1011.1
20260904113104 54 251 0.0 0.0 0.00 0.03 0.00 93 1011.1
20260904112603 54 251 0.0 0.0 0.00 0.03 0.00 93 1011.0
20260904111604 54 250 0.0 0.0 0.00 0.04 0.00 93 1010.9
20260904111104 54 250 0.0 0.0 0.00 0.04 0.00 93 1010.9
20260904110604 54 250 0.0 0.0 0.00 0.04 0.00 93 1010.9
20260904110104 54 250 0.0 0.0 0.00 0.04 0.00 93 1010.9
20260904105604 54 250 0.0 0.0 0.00 0.04 0.00 92 1010.8
20260904105104 54 250 0.0 0.0 0.00 0.04 0.00 93 1010.7
20260904104604 54 250 0.0 0.0 0.00 0.05 0.00 93 1010.6
20260904104104 54 250 0.0 0.0 0.00 0.05 0.00 93 1010.6
20260904103603 54 250 0.0 0.0 0.00 0.05 0.00 93 1010.6
20260904103103 54 250 0.0 0.0 0.00 0.06 0.00 93 1010.5
20260904102603 54 250 0.0 0.0 0.00 0.06 0.00 93 1010.5
20260904102104 54 250 0.0 0.0 0.00 0.06 0.00 93 1010.5
20260904101603 54 250 0.0 0.0 0.00 0.06 0.00 93 1010.6
20260904101103 54 250 0.0 0.0 0.00 0.06 0.00 93 1010.5
20260904100603 54 250 0.0 0.0 0.00 0.06 0.00 93 1010.5
20260904100103 54 250 0.0 0.0 0.00 0.07 0.00 93 1010.5
20260904095604 54 250 0.0 0.0 0.00 0.07 0.00 93 1010.4
20260904095104 54 251 0.0 0.0 0.00 0.07 0.00 93 1010.5
20260904094604 54 250 0.0 0.0 0.00 0.07 0.00 92 1010.5
20260904093604 54 250 0.0 0.0 0.00 0.07 0.00 92 1010.5
20260904093104 54 250 0.0 0.0 0.00 0.07 0.00 93 1010.5
20260904092603 54 250 0.0 0.0 0.00 0.07 0.00 92 1010.4
20260904092104 54 250 0.0 0.0 0.00 0.07 0.00 92 1010.5
20260904091604 54 250 0.0 0.0 0.00 0.07 0.00 92 1010.5
20260904091104 54 250 0.0 0.0 0.00 0.07 0.00 93 1010.5
20260904090604 54 250 0.0 0.0 0.00 0.07 0.00 92 1010.6
20260904090104 54 250 0.0 0.0 0.00 0.07 0.00 92 1010.6
20260904085103 54 250 0.0 0.0 0.00 0.08 0.00 92 1010.7
20260904084104 54 250 0.0 0.0 0.00 0.08 0.00 92 1010.6
20260904083604 54 250 0.0 0.0 0.00 0.09 0.00 92 1010.5
20260904083104 54 250 0.0 0.0 0.00 0.09 0.00 92 1010.6